,,,PA_Meas_PMT16A,,PR_Meas_QMR101_102,,RH_Meas_QMH101,,SR_Meas_QMS101,,TA_Meas_QMH101,,GenWind,,GenWind,
date,time,status,PA,status,PR,status,RH,status,SR,status,TA,status,DirAvg,status,SpdAvg,
2012-07-28, 00:00:05,VALID,1000.25,VALID,0,VALID,40.9634,VALID,0,VALID,27.2113,VALID,166,VALID,2.56953,
2012-07-28, 00:01:05,VALID,1000.22,VALID,0,VALID,41.7722,VALID,0,VALID,27.0571,VALID,165,VALID,2.08203,
2012-07-28, 00:02:05,VALID,1000.21,VALID,0,VALID,42.5275,VALID,0,VALID,26.9204,VALID,170,VALID,3.13945,
2012-07-28, 00:03:05,VALID,1000.19,VALID,0,VALID,42.558,VALID,0,VALID,26.9204,VALID,193,VALID,1.7457,
2012-07-28, 00:04:05,VALID,1000.19,VALID,0,VALID,41.3449,VALID,0,VALID,26.9008,VALID,211,VALID,1.47305,
2012-07-28, 00:05:04,VALID,1000.16,VALID,0,VALID,41.322,VALID,0,VALID,26.9204,VALID,195,VALID,2.52773,
2012-07-28, 00:06:04,VALID,1000.11,VALID,0,VALID,41.0855,VALID,0,VALID,27.018,VALID,167,VALID,3.19844,
2012-07-28, 00:07:04,VALID,1000.14,VALID,0,VALID,41.5204,VALID,0,VALID,27.0961,VALID,181,VALID,2.54805,
2012-07-28, 00:08:04,VALID,1000.1,VALID,0,VALID,41.1618,VALID,0,VALID,27.0961,VALID,213,VALID,2.18008,
2012-07-28, 00:09:04,VALID,1000.14,VALID,0,VALID,40.9405,VALID,0,VALID,27.0766,VALID,201,VALID,2.02578,
2012-07-28, 00:10:04,VALID,1000.12,VALID,0,VALID,40.8719,VALID,0,VALID,27.0766,VALID,173,VALID,3.82188,
2012-07-28, 00:11:04,VALID,1000.05,VALID,0,VALID,40.0784,VALID,0,VALID,27.1547,VALID,183,VALID,5.11055,
2012-07-28, 00:12:04,VALID,1000.07,VALID,0,VALID,40.6582,VALID,0,VALID,27.2524,VALID,179,VALID,4.40859,
2012-07-28, 00:13:04,VALID,1000.08,VALID,0,VALID,40.4675,VALID,0,VALID,27.2329,VALID,187,VALID,3.39375,
2012-07-28, 00:14:04,VALID,1000.08,VALID,0,VALID,41.2228,VALID,0,VALID,27.2329,VALID,171,VALID,3.76992,
2012-07-28, 00:15:04,VALID,1000.03,VALID,0,VALID,40.5438,VALID,0,VALID,27.1547,VALID,173,VALID,4.58594,
2012-07-28, 00:16:04,VALID,1000.01,VALID,0,VALID,40.498,VALID,0,VALID,27.2329,VALID,193,VALID,3.68086,
2012-07-28, 00:17:04,VALID,999.972,VALID,0,VALID,40.6582,VALID,0,VALID,27.2133,VALID,173,VALID,4.45586,
2012-07-28, 00:18:04,VALID,999.979,VALID,0,VALID,40.7879,VALID,0,VALID,27.2133,VALID,170,VALID,4.14609,
2012-07-28, 00:19:04,VALID,999.964,VALID,0,VALID,41.1008,VALID,0,VALID,27.1743,VALID,195,VALID,3.37344,
2012-07-28, 00:20:04,VALID,999.978,VALID,0,VALID,40.7117,VALID,0,VALID,27.1547,VALID,184,VALID,3.15234,
2012-07-28, 00:21:04,VALID,999.957,VALID,0,VALID,40.0631,VALID,0,VALID,27.2133,VALID,197,VALID,4.59141,
2012-07-28, 00:22:04,VALID,999.974,VALID,0,VALID,40.2615,VALID,0,VALID,27.2719,VALID,198,VALID,3.1918,
2012-07-28, 00:23:04,VALID,999.931,VALID,0,VALID,39.6664,VALID,0,VALID,27.2524,VALID,188,VALID,3.59102,
2012-07-28, 00:24:04,VALID,999.973,VALID,0,VALID,40.0631,VALID,0,VALID,27.2133,VALID,179,VALID,3.93828,
2012-07-28, 00:25:04,VALID,999.931,VALID,0,VALID,39.5977,VALID,0,VALID,27.2329,VALID,192,VALID,3.78945,
2012-07-28, 00:26:04,VALID,999.992,VALID,0,VALID,40.1776,VALID,0,VALID,27.2719,VALID,191,VALID,3.32539,
2012-07-28, 00:27:04,VALID,999.944,VALID,0,VALID,39.3994,VALID,0,VALID,27.2719,VALID,184,VALID,5.4957,
2012-07-28, 00:28:04,VALID,999.943,VALID,0,VALID,39.3765,VALID,0,VALID,27.35,VALID,172,VALID,4.94297,
2012-07-28, 00:29:04,VALID,999.886,VALID,0,VALID,38.8042,VALID,0,VALID,27.3891,VALID,187,VALID,5.36016,
2012-07-28, 00:30:04,VALID,999.911,VALID,0,VALID,39.1247,VALID,0,VALID,27.3891,VALID,178,VALID,5.75313,
2012-07-28, 00:31:04,VALID,999.926,VALID,0,VALID,39.2697,VALID,0,VALID,27.4086,VALID,186,VALID,3.97148,
2012-07-28, 00:32:04,VALID,999.927,VALID,0,VALID,38.9874,VALID,0,VALID,27.4086,VALID,191,VALID,4.28633,
2012-07-28, 00:33:04,VALID,999.939,VALID,0,VALID,39.2544,VALID,0,VALID,27.3305,VALID,186,VALID,4.4918,
2012-07-28, 00:34:04,VALID,999.922,VALID,0,VALID,39.4146,VALID,0.104696,VALID,27.3696,VALID,197,VALID,4.21719,
2012-07-28, 00:35:04,VALID,999.917,VALID,0,VALID,39.468,VALID,0,VALID,27.2894,VALID,209,VALID,2.88477,
2012-07-28, 00:36:04,VALID,999.946,VALID,0,VALID,40.8795,VALID,0,VALID,27.2329,VALID,207,VALID,2.58086,
2012-07-28, 00:37:04,VALID,999.915,VALID,0,VALID,39.5977,VALID,0,VALID,27.1938,VALID,206,VALID,4.02461,
2012-07-28, 00:38:04,VALID,999.935,VALID,0,VALID,39.4833,VALID,0,VALID,27.1743,VALID,199,VALID,3.08008,
2012-07-28, 00:39:04,VALID,999.882,VALID,0,VALID,38.9416,VALID,0,VALID,27.2719,VALID,187,VALID,4.27734,
2012-07-28, 00:40:04,VALID,999.825,VALID,0,VALID,38.7661,VALID,0,VALID,27.3891,VALID,203,VALID,4.28281,
2012-07-28, 00:41:04,VALID,999.878,VALID,0,VALID,39.2391,VALID,0,VALID,27.3891,VALID,174,VALID,5.43203,
2012-07-28, 00:42:04,VALID,999.79,VALID,0,VALID,38.9263,VALID,0,VALID,27.3305,VALID,180,VALID,5.86016,
2012-07-28, 00:43:04,VALID,999.845,VALID,0,VALID,39.1934,VALID,0,VALID,27.3305,VALID,182,VALID,2.68594,
2012-07-28, 00:44:04,VALID,999.812,VALID,0,VALID,39.3612,VALID,0,VALID,27.2894,VALID,186,VALID,4.15859,
2012-07-28, 00:45:04,VALID,999.853,VALID,0,VALID,39.2468,VALID,0,VALID,27.2719,VALID,183,VALID,3.69844,
2012-07-28, 00:46:04,VALID,999.831,VALID,0,VALID,40.1699,VALID,0,VALID,27.2915,VALID,197,VALID,3.06953,
2012-07-28, 00:47:04,VALID,999.815,VALID,0,VALID,39.8037,VALID,0,VALID,27.2524,VALID,187,VALID,4.59727,
2012-07-28, 00:48:04,VALID,999.808,VALID,0,VALID,39.3154,VALID,0,VALID,27.2915,VALID,176,VALID,6.24609,
2012-07-28, 00:49:04,VALID,999.753,VALID,0,VALID,39.4222,VALID,0,VALID,27.2935,VALID,186,VALID,4.08398,
2012-07-28, 00:50:04,VALID,999.782,VALID,0,VALID,39.5825,VALID,0,VALID,27.2719,VALID,182,VALID,4.68281,
2012-07-28, 00:51:04,VALID,999.733,VALID,0,VALID,39.2239,VALID,0,VALID,27.2308,VALID,166,VALID,6.50859,
2012-07-28, 00:52:04,VALID,999.7,VALID,0,VALID,39.9487,VALID,0,VALID,27.2329,VALID,178,VALID,5.40273,
2012-07-28, 00:53:04,VALID,999.71,VALID,0,VALID,39.8419,VALID,0.104696,VALID,27.2113,VALID,181,VALID,5.74805,
2012-07-28, 00:54:04,VALID,999.708,VALID,0,VALID,40.6735,VALID,0,VALID,27.1917,VALID,180,VALID,5.42266,
2012-07-28, 00:55:04,VALID,999.705,VALID,0,VALID,40.6201,VALID,0,VALID,27.2133,VALID,199,VALID,4.59141,
2012-07-28, 00:56:04,VALID,999.619,VALID,0,VALID,40.6964,VALID,0,VALID,27.1331,VALID,164,VALID,6.44727,
2012-07-28, 00:57:04,VALID,999.679,VALID,0,VALID,41.1771,VALID,0,VALID,27.0941,VALID,175,VALID,4.65234,
2012-07-28, 00:58:04,VALID,999.664,VALID,0,VALID,40.9711,VALID,0,VALID,27.1157,VALID,180,VALID,2.72227,
2012-07-28, 00:59:04,VALID,999.648,VALID,0,VALID,41.0321,VALID,0,VALID,27.0571,VALID,179,VALID,6.26875,
2012-07-28, 01:00:04,VALID,999.619,VALID,0,VALID,41.0245,VALID,0,VALID,27.1331,VALID,175,VALID,6.49375,
2012-07-28, 01:01:04,VALID,999.598,VALID,0,VALID,40.3073,VALID,0,VALID,27.1938,VALID,177,VALID,7.32266,
2012-07-28, 01:02:04,VALID,999.637,VALID,0,VALID,40.9253,VALID,0,VALID,27.2133,VALID,179,VALID,5.26055,
2012-07-28, 01:03:04,VALID,999.629,VALID,0,VALID,41.0702,VALID,0,VALID,27.0941,VALID,169,VALID,6.26719,
2012-07-28, 01:04:04,VALID,999.563,VALID,0,VALID,41.4212,VALID,0,VALID,27.0961,VALID,178,VALID,6.23828,
2012-07-28, 01:05:04,VALID,999.603,VALID,0,VALID,41.2991,VALID,0,VALID,27.0941,VALID,177,VALID,5.77109,
2012-07-28, 01:06:04,VALID,999.606,VALID,0,VALID,41.2762,VALID,0,VALID,27.0941,VALID,184,VALID,5.02344,
2012-07-28, 01:07:04,VALID,999.591,VALID,0,VALID,41.7416,VALID,0,VALID,27.0745,VALID,175,VALID,4.91914,
2012-07-28, 01:08:04,VALID,999.527,VALID,0,VALID,41.3602,VALID,0,VALID,27.0355,VALID,172,VALID,5.73711,
2012-07-28, 01:09:04,VALID,999.569,VALID,0,VALID,42.352,VALID,0.104696,VALID,27.016,VALID,174,VALID,4.03164,
2012-07-28, 01:10:04,VALID,999.521,VALID,0,VALID,41.5662,VALID,0,VALID,26.9985,VALID,177,VALID,6.39453,
2012-07-28, 01:11:04,VALID,999.546,VALID,0,VALID,42.352,VALID,0.104696,VALID,26.9769,VALID,175,VALID,5.63828,
2012-07-28, 01:12:04,VALID,999.588,VALID,0,VALID,42.1918,VALID,0,VALID,26.9574,VALID,183,VALID,3.8625,
2012-07-28, 01:13:04,VALID,999.516,VALID,0,VALID,41.94,VALID,0.104696,VALID,26.9378,VALID,185,VALID,5.83125,
2012-07-28, 01:14:04,VALID,999.56,VALID,0,VALID,42.5733,VALID,0,VALID,26.9985,VALID,185,VALID,4.21406,
2012-07-28, 01:15:04,VALID,999.532,VALID,0,VALID,42.8479,VALID,0,VALID,26.9789,VALID,175,VALID,4.77383,
2012-07-28, 01:16:04,VALID,999.567,VALID,0,VALID,43.0158,VALID,0.104696,VALID,26.8793,VALID,184,VALID,4.01016,
2012-07-28, 01:17:04,VALID,999.556,VALID,0,VALID,43.0921,VALID,0,VALID,26.8402,VALID,182,VALID,4.37148,
2012-07-28, 01:18:04,VALID,999.582,VALID,0,VALID,43.5575,VALID,0,VALID,26.8227,VALID,188,VALID,4.48867,
2012-07-28, 01:19:04,VALID,999.505,VALID,0,VALID,43.3515,VALID,0.104696,VALID,26.8422,VALID,184,VALID,4.29375,
2012-07-28, 01:20:04,VALID,999.547,VALID,0,VALID,44.1755,VALID,0,VALID,26.8443,VALID,171,VALID,4.57695,
2012-07-28, 01:21:04,VALID,999.52,VALID,0,VALID,44.2976,VALID,0,VALID,26.7641,VALID,182,VALID,5.55586,
2012-07-28, 01:22:04,VALID,999.517,VALID,0,VALID,44.0534,VALID,0,VALID,26.7836,VALID,176,VALID,5.31602,
2012-07-28, 01:23:04,VALID,999.548,VALID,0,VALID,44.4883,VALID,0,VALID,26.8032,VALID,185,VALID,4.10859,
2012-07-28, 01:24:04,VALID,999.542,VALID,0,VALID,43.939,VALID,0,VALID,26.8032,VALID,182,VALID,5.55703,
2012-07-28, 01:25:04,VALID,999.589,VALID,0,VALID,44.4349,VALID,0,VALID,26.8247,VALID,180,VALID,5.20547,
2012-07-28, 01:26:04,VALID,999.615,VALID,0,VALID,44.3052,VALID,0,VALID,26.8227,VALID,189,VALID,6.2582,
2012-07-28, 01:27:04,VALID,999.575,VALID,0,VALID,43.733,VALID,0,VALID,26.9008,VALID,189,VALID,5.44023,
2012-07-28, 01:28:04,VALID,999.561,VALID,0,VALID,43.8779,VALID,0,VALID,26.9615,VALID,194,VALID,3.18008,
2012-07-28, 01:29:04,VALID,999.589,VALID,0,VALID,44.3052,VALID,0,VALID,26.8813,VALID,180,VALID,4.61484,
2012-07-28, 01:30:04,VALID,999.564,VALID,0,VALID,45.2131,VALID,0,VALID,26.8227,VALID,174,VALID,5.55195,
2012-07-28, 01:31:04,VALID,999.503,VALID,0,VALID,44.9232,VALID,0,VALID,26.7251,VALID,181,VALID,3.70547,
2012-07-28, 01:32:04,VALID,999.473,VALID,0,VALID,45.9227,VALID,0,VALID,26.7466,VALID,175,VALID,4.60938,
2012-07-28, 01:33:04,VALID,999.46,VALID,0,VALID,46.1592,VALID,0,VALID,26.7055,VALID,178,VALID,5.7375,
2012-07-28, 01:34:04,VALID,999.48,VALID,0,VALID,46.6551,VALID,0,VALID,26.686,VALID,171,VALID,6.83672,
2012-07-28, 01:35:04,VALID,999.466,VALID,0,VALID,47.1587,VALID,0,VALID,26.6254,VALID,177,VALID,4.66953,
2012-07-28, 01:36:04,VALID,999.445,VALID,0,VALID,46.9145,VALID,0,VALID,26.6665,VALID,178,VALID,3.98008,
2012-07-28, 01:37:04,VALID,999.493,VALID,0,VALID,47.09,VALID,0,VALID,26.6665,VALID,189,VALID,3.20039,
2012-07-28, 01:38:04,VALID,999.448,VALID,0,VALID,47.3342,VALID,0,VALID,26.7055,VALID,179,VALID,5.31406,
2012-07-28, 01:39:04,VALID,999.487,VALID,0,VALID,46.8535,VALID,0,VALID,26.686,VALID,182,VALID,3.52656,
2012-07-28, 01:40:04,VALID,999.502,VALID,0,VALID,47.1511,VALID,0,VALID,26.6644,VALID,190,VALID,2.67891,
2012-07-28, 01:41:04,VALID,999.423,VALID,0,VALID,46.9374,VALID,0,VALID,26.6059,VALID,205,VALID,4.15586,
2012-07-28, 01:42:04,VALID,999.496,VALID,0,VALID,46.9679,VALID,0,VALID,26.5863,VALID,192,VALID,3.40156,
2012-07-28, 01:43:04,VALID,999.454,VALID,0,VALID,47.1053,VALID,0,VALID,26.6665,VALID,186,VALID,4.14961,
2012-07-28, 01:44:04,VALID,999.445,VALID,0,VALID,47.0366,VALID,0,VALID,26.686,VALID,195,VALID,3.0082,
2012-07-28, 01:45:04,VALID,999.372,VALID,0,VALID,46.8916,VALID,0,VALID,26.6665,VALID,178,VALID,4.23047,
2012-07-28, 01:46:04,VALID,999.422,VALID,0,VALID,47.1587,VALID,0,VALID,26.686,VALID,178,VALID,3.72891,
2012-07-28, 01:47:04,VALID,999.377,VALID,0,VALID,47.1739,VALID,0,VALID,26.6254,VALID,181,VALID,4.28203,
2012-07-28, 01:48:04,VALID,999.401,VALID,0,VALID,47.7919,VALID,0,VALID,26.6079,VALID,185,VALID,2.5418,
2012-07-28, 01:49:04,VALID,999.396,VALID,0,VALID,48.0056,VALID,0,VALID,26.5668,VALID,187,VALID,3.21133,
2012-07-28, 01:50:04,VALID,999.373,VALID,0,VALID,47.8911,VALID,0,VALID,26.4887,VALID,187,VALID,3.97773,
2012-07-28, 01:51:04,VALID,999.376,VALID,0,VALID,47.9445,VALID,0,VALID,26.5473,VALID,184,VALID,4.20859,
2012-07-28, 01:52:04,VALID,999.404,VALID,0,VALID,47.9979,VALID,0,VALID,26.5493,VALID,179,VALID,3.84492,
2012-07-28, 01:53:04,VALID,999.368,VALID,0,VALID,47.6012,VALID,0,VALID,26.5688,VALID,177,VALID,4.37148,
2012-07-28, 01:54:04,VALID,999.347,VALID,0,VALID,47.5554,VALID,0,VALID,26.6079,VALID,180,VALID,4.66406,
2012-07-28, 01:55:04,VALID,999.353,VALID,0,VALID,47.8453,VALID,0,VALID,26.5278,VALID,192,VALID,4.21133,
2012-07-28, 01:56:04,VALID,999.312,VALID,0,VALID,47.4105,VALID,0,VALID,26.6079,VALID,178,VALID,5.05547,
2012-07-28, 01:57:04,VALID,999.349,VALID,0,VALID,47.0061,VALID,0,VALID,26.6469,VALID,187,VALID,5.89219,
2012-07-28, 01:58:04,VALID,999.34,VALID,0,VALID,47.1663,VALID,0.104696,VALID,26.684,VALID,201,VALID,4.12422,
2012-07-28, 01:59:04,VALID,999.343,VALID,0,VALID,46.9832,VALID,0,VALID,26.7055,VALID,198,VALID,4.43516,
2012-07-28, 02:00:04,VALID,999.338,VALID,0,VALID,47.647,VALID,0,VALID,26.6644,VALID,179,VALID,5.14922,
2012-07-28, 02:01:04,VALID,999.356,VALID,0,VALID,47.9445,VALID,0,VALID,26.6059,VALID,189,VALID,4.24023,
2012-07-28, 02:02:04,VALID,999.356,VALID,0,VALID,47.6317,VALID,0,VALID,26.6274,VALID,196,VALID,4.10117,
2012-07-28, 02:03:04,VALID,999.377,VALID,0,VALID,47.9827,VALID,0,VALID,26.6665,VALID,206,VALID,3.49023,
2012-07-28, 02:04:04,VALID,999.332,VALID,0,VALID,47.3876,VALID,0,VALID,26.6665,VALID,177,VALID,3.43789,
2012-07-28, 02:05:04,VALID,999.275,VALID,0,VALID,47.3952,VALID,0,VALID,26.6665,VALID,180,VALID,4.09219,
2012-07-28, 02:06:04,VALID,999.288,VALID,0,VALID,48.0513,VALID,0,VALID,26.6079,VALID,186,VALID,4.58555,
2012-07-28, 02:07:04,VALID,999.301,VALID,0,VALID,48.3031,VALID,0.104696,VALID,26.5884,VALID,189,VALID,4.25703,
2012-07-28, 02:08:04,VALID,999.309,VALID,0,VALID,48.3642,VALID,0,VALID,26.5493,VALID,197,VALID,4.03398,
2012-07-28, 02:09:04,VALID,999.287,VALID,0,VALID,47.9903,VALID,0,VALID,26.5884,VALID,180,VALID,4.77695,
2012-07-28, 02:10:04,VALID,999.275,VALID,0,VALID,48.0056,VALID,0,VALID,26.6665,VALID,183,VALID,4.6793,
2012-07-28, 02:11:04,VALID,999.278,VALID,0,VALID,48.7914,VALID,0,VALID,26.6274,VALID,173,VALID,4.70703,
2012-07-28, 02:12:04,VALID,999.267,VALID,0,VALID,48.2802,VALID,0,VALID,26.6079,VALID,203,VALID,3.81523,
2012-07-28, 02:13:04,VALID,999.291,VALID,0,VALID,48.4633,VALID,0,VALID,26.6079,VALID,188,VALID,3.68672,
2012-07-28, 02:14:04,VALID,999.24,VALID,0,VALID,48.6922,VALID,0,VALID,26.6079,VALID,198,VALID,3.49688,
2012-07-28, 02:15:04,VALID,999.216,VALID,0,VALID,48.6693,VALID,0,VALID,26.6469,VALID,180,VALID,5.13477,
2012-07-28, 02:16:04,VALID,999.259,VALID,0,VALID,48.9364,VALID,0,VALID,26.6274,VALID,183,VALID,2.94102,
2012-07-28, 02:17:04,VALID,999.237,VALID,0,VALID,49.2645,VALID,0,VALID,26.6079,VALID,176,VALID,5.52187,
2012-07-28, 02:18:04,VALID,999.234,VALID,0,VALID,48.7609,VALID,0,VALID,26.5688,VALID,188,VALID,4.62422,
2012-07-28, 02:19:04,VALID,999.305,VALID,0,VALID,49.0432,VALID,0,VALID,26.5863,VALID,200,VALID,4.7207,
2012-07-28, 02:20:04,VALID,999.254,VALID,0,VALID,49.4857,VALID,0,VALID,26.5278,VALID,179,VALID,3.17188,
2012-07-28, 02:21:04,VALID,999.281,VALID,0,VALID,49.3484,VALID,0,VALID,26.5102,VALID,196,VALID,3.77266,
2012-07-28, 02:22:04,VALID,999.24,VALID,0,VALID,48.4023,VALID,0,VALID,26.4887,VALID,174,VALID,5.64063,
2012-07-28, 02:23:04,VALID,999.281,VALID,0,VALID,48.6922,VALID,0,VALID,26.5688,VALID,188,VALID,4.74062,
2012-07-28, 02:24:04,VALID,999.218,VALID,0,VALID,49.0203,VALID,0,VALID,26.6665,VALID,185,VALID,5.63906,
2012-07-28, 02:25:04,VALID,999.225,VALID,0,VALID,48.8753,VALID,0,VALID,26.6665,VALID,184,VALID,5.36328,
2012-07-28, 02:26:04,VALID,999.177,VALID,0,VALID,48.0437,VALID,0,VALID,26.7251,VALID,176,VALID,6.76523,
2012-07-28, 02:27:04,VALID,999.182,VALID,0,VALID,48.7914,VALID,0,VALID,26.7641,VALID,179,VALID,6.70937,
2012-07-28, 02:28:04,VALID,999.23,VALID,0,VALID,48.6999,VALID,0,VALID,26.8227,VALID,185,VALID,5.74609,
2012-07-28, 02:29:04,VALID,999.251,VALID,0,VALID,49.2568,VALID,0,VALID,26.7426,VALID,176,VALID,5.48672,
2012-07-28, 02:30:04,VALID,999.23,VALID,0,VALID,49.4323,VALID,0,VALID,26.7446,VALID,181,VALID,5.44375,
2012-07-28, 02:31:04,VALID,999.24,VALID,0,VALID,49.6917,VALID,0,VALID,26.6665,VALID,201,VALID,3.53125,
2012-07-28, 02:32:04,VALID,999.13,VALID,0,VALID,49.1195,VALID,0.104696,VALID,26.684,VALID,176,VALID,6.83359,
2012-07-28, 02:33:04,VALID,999.232,VALID,0,VALID,49.3026,VALID,0.104696,VALID,26.7251,VALID,175,VALID,6.05,
2012-07-28, 02:34:04,VALID,999.215,VALID,0,VALID,49.4552,VALID,0,VALID,26.7426,VALID,182,VALID,5.18281,
2012-07-28, 02:35:04,VALID,999.18,VALID,0,VALID,49.501,VALID,0,VALID,26.7621,VALID,189,VALID,4.45313,
2012-07-28, 02:36:04,VALID,999.223,VALID,0,VALID,49.2873,VALID,0,VALID,26.7816,VALID,193,VALID,5.15117,
2012-07-28, 02:37:04,VALID,999.188,VALID,0,VALID,49.417,VALID,0,VALID,26.8227,VALID,179,VALID,7.05039,
2012-07-28, 02:38:04,VALID,999.232,VALID,0,VALID,49.8138,VALID,0,VALID,26.7426,VALID,180,VALID,5.0582,
2012-07-28, 02:39:04,VALID,999.24,VALID,0,VALID,50.0732,VALID,0.104696,VALID,26.686,VALID,184,VALID,3.58867,
2012-07-28, 02:40:04,VALID,999.157,VALID,0,VALID,50.447,VALID,0.104696,VALID,26.6274,VALID,177,VALID,4.57617,
2012-07-28, 02:41:04,VALID,999.217,VALID,0,VALID,50.5081,VALID,0.104696,VALID,26.6665,VALID,184,VALID,5.7543,
2012-07-28, 02:42:04,VALID,999.208,VALID,0,VALID,50.4699,VALID,0,VALID,26.6665,VALID,167,VALID,6.76992,
2012-07-28, 02:43:04,VALID,999.209,VALID,0,VALID,50.5081,VALID,0,VALID,26.6469,VALID,207,VALID,4.07969,
2012-07-28, 02:44:04,VALID,999.245,VALID,0,VALID,51.1719,VALID,0,VALID,26.5863,VALID,197,VALID,5.64063,
2012-07-28, 02:45:04,VALID,999.208,VALID,0,VALID,51.5381,VALID,0,VALID,26.6665,VALID,185,VALID,4.68477,
2012-07-28, 02:46:04,VALID,999.226,VALID,0,VALID,51.0498,VALID,0,VALID,26.6449,VALID,181,VALID,5.45547,
2012-07-28, 02:47:04,VALID,999.188,VALID,0,VALID,51.3779,VALID,0,VALID,26.686,VALID,177,VALID,5.23789,
2012-07-28, 02:48:04,VALID,999.176,VALID,0,VALID,51.3855,VALID,0,VALID,26.6079,VALID,190,VALID,3.63633,
2012-07-28, 02:49:04,VALID,999.173,VALID,0,VALID,51.2558,VALID,0,VALID,26.5668,VALID,175,VALID,6.38008,
2012-07-28, 02:50:04,VALID,999.191,VALID,0,VALID,51.2634,VALID,0,VALID,26.6079,VALID,173,VALID,5.93672,
2012-07-28, 02:51:04,VALID,999.196,VALID,0,VALID,51.5533,VALID,0,VALID,26.6274,VALID,178,VALID,6.39727,
2012-07-28, 02:52:04,VALID,999.158,VALID,0,VALID,50.531,VALID,0,VALID,26.7055,VALID,196,VALID,5.46523,
2012-07-28, 02:53:04,VALID,999.235,VALID,0,VALID,50.859,VALID,0,VALID,26.7446,VALID,186,VALID,3.93477,
2012-07-28, 02:54:04,VALID,999.157,VALID,0,VALID,51.1795,VALID,0,VALID,26.6644,VALID,212,VALID,3.55547,
2012-07-28, 02:55:04,VALID,999.171,VALID,0,VALID,51.0574,VALID,0,VALID,26.7035,VALID,191,VALID,3.02344,
2012-07-28, 02:56:04,VALID,999.164,VALID,0,VALID,51.5152,VALID,0,VALID,26.686,VALID,182,VALID,4.93945,
2012-07-28, 02:57:04,VALID,999.17,VALID,0,VALID,52.1942,VALID,0,VALID,26.6469,VALID,182,VALID,5.06758,
2012-07-28, 02:58:04,VALID,999.186,VALID,0,VALID,51.4618,VALID,0,VALID,26.7055,VALID,201,VALID,5.93477,
2012-07-28, 02:59:04,VALID,999.201,VALID,0,VALID,52.095,VALID,0,VALID,26.7055,VALID,179,VALID,5.06641,
2012-07-28, 03:00:04,VALID,999.178,VALID,0,VALID,51.6678,VALID,0,VALID,26.7446,VALID,186,VALID,6.2082,
2012-07-28, 03:01:04,VALID,999.16,VALID,0,VALID,51.9806,VALID,0,VALID,26.7035,VALID,188,VALID,4.60547,
2012-07-28, 03:02:04,VALID,999.214,VALID,0,VALID,52.2019,VALID,0,VALID,26.684,VALID,184,VALID,5.68359,
2012-07-28, 03:03:04,VALID,999.206,VALID,0,VALID,52.4231,VALID,0,VALID,26.6665,VALID,181,VALID,4.93828,
2012-07-28, 03:04:04,VALID,999.178,VALID,0,VALID,52.5299,VALID,0,VALID,26.6274,VALID,178,VALID,5.42578,
2012-07-28, 03:05:04,VALID,999.17,VALID,0,VALID,52.6902,VALID,0,VALID,26.5708,VALID,176,VALID,4.03242,
2012-07-28, 03:06:04,VALID,999.129,VALID,0,VALID,52.0416,VALID,0,VALID,26.6099,VALID,178,VALID,6.0332,
2012-07-28, 03:07:04,VALID,999.157,VALID,0,VALID,52.0035,VALID,0,VALID,26.686,VALID,207,VALID,4.98203,
2012-07-28, 03:08:04,VALID,999.153,VALID,0,VALID,52.2934,VALID,0,VALID,26.688,VALID,185,VALID,5.78984,
2012-07-28, 03:09:04,VALID,999.131,VALID,0,VALID,52.0187,VALID,0,VALID,26.7076,VALID,175,VALID,7.15391,
2012-07-28, 03:10:04,VALID,999.062,VALID,0,VALID,51.8356,VALID,0,VALID,26.7661,VALID,180,VALID,7.07461,
2012-07-28, 03:11:04,VALID,999.113,VALID,0,VALID,51.7059,VALID,0,VALID,26.7271,VALID,192,VALID,5.40977,
2012-07-28, 03:12:04,VALID,999.046,VALID,0,VALID,51.3855,VALID,0,VALID,26.7466,VALID,191,VALID,5.33789,
2012-07-28, 03:13:04,VALID,999.114,VALID,0,VALID,51.2863,VALID,0,VALID,26.7466,VALID,174,VALID,4.77891,
2012-07-28, 03:14:04,VALID,999.032,VALID,0,VALID,50.8362,VALID,0,VALID,26.7641,VALID,180,VALID,6.69883,
2012-07-28, 03:15:04,VALID,999.097,VALID,0,VALID,51.004,VALID,0,VALID,26.8443,VALID,191,VALID,3.5918,
2012-07-28, 03:16:04,VALID,999.049,VALID,0,VALID,51.0956,VALID,0,VALID,26.7857,VALID,172,VALID,6.02148,
2012-07-28, 03:17:04,VALID,999.159,VALID,0,VALID,51.4542,VALID,0,VALID,26.7271,VALID,180,VALID,3.58789,
2012-07-28, 03:18:04,VALID,999.085,VALID,0,VALID,50.3326,VALID,0,VALID,26.7076,VALID,190,VALID,6.19922,
2012-07-28, 03:19:04,VALID,999.108,VALID,0,VALID,50.386,VALID,0,VALID,26.8247,VALID,170,VALID,6.6668,
2012-07-28, 03:20:04,VALID,999.239,VALID,0,VALID,50.3097,VALID,0,VALID,26.8227,VALID,184,VALID,4.98672,
2012-07-28, 03:21:04,VALID,999.157,VALID,0,VALID,51.2176,VALID,0,VALID,26.8032,VALID,172,VALID,4.87969,
2012-07-28, 03:22:04,VALID,999.129,VALID,0,VALID,51.3626,VALID,0,VALID,26.7641,VALID,172,VALID,9.56094,
2012-07-28, 03:23:04,VALID,999.13,VALID,0,VALID,51.1413,VALID,0,VALID,26.8032,VALID,181,VALID,7.41289,
2012-07-28, 03:24:04,VALID,999.225,VALID,0,VALID,50.8056,VALID,0,VALID,26.8207,VALID,179,VALID,7.10781,
2012-07-28, 03:25:04,VALID,999.172,VALID,0,VALID,50.7217,VALID,0,VALID,26.8813,VALID,180,VALID,7.43789,
2012-07-28, 03:26:04,VALID,999.241,VALID,0,VALID,50.8056,VALID,0,VALID,26.8988,VALID,189,VALID,5.81484,
2012-07-28, 03:27:04,VALID,999.254,VALID,0,VALID,50.6759,VALID,0,VALID,26.9789,VALID,199,VALID,6.29531,
2012-07-28, 03:28:04,VALID,999.215,VALID,0,VALID,50.3555,VALID,0,VALID,26.9594,VALID,187,VALID,6.64453,
2012-07-28, 03:29:04,VALID,999.2,VALID,0,VALID,50.3555,VALID,0,VALID,26.9985,VALID,194,VALID,6.52305,
2012-07-28, 03:30:04,VALID,999.157,VALID,0,VALID,50.0045,VALID,0,VALID,27.018,VALID,192,VALID,7.03906,
2012-07-28, 03:31:04,VALID,999.162,VALID,0,VALID,49.7833,VALID,0,VALID,27.018,VALID,186,VALID,8.56641,
2012-07-28, 03:32:04,VALID,999.215,VALID,0,VALID,49.768,VALID,0,VALID,27.0766,VALID,185,VALID,6.81797,
2012-07-28, 03:33:04,VALID,999.154,VALID,0,VALID,49.8519,VALID,0,VALID,27.0766,VALID,187,VALID,5.29609,
2012-07-28, 03:34:04,VALID,999.183,VALID,0,VALID,49.9206,VALID,0,VALID,27.0375,VALID,190,VALID,5.53906,
2012-07-28, 03:35:04,VALID,999.176,VALID,0,VALID,49.6459,VALID,0,VALID,26.9985,VALID,190,VALID,4.90078,
2012-07-28, 03:36:04,VALID,999.152,VALID,0,VALID,49.1576,VALID,0,VALID,27.0355,VALID,183,VALID,7.39531,
2012-07-28, 03:37:04,VALID,999.13,VALID,0,VALID,48.8372,VALID,0,VALID,27.1352,VALID,186,VALID,7.0957,
2012-07-28, 03:38:04,VALID,999.148,VALID,0,VALID,49.4857,VALID,0,VALID,27.1136,VALID,175,VALID,6.9793,
2012-07-28, 03:39:04,VALID,999.19,VALID,0,VALID,49.6841,VALID,0,VALID,27.0766,VALID,193,VALID,4.81523,
2012-07-28, 03:40:04,VALID,999.057,VALID,0,VALID,48.7228,VALID,0,VALID,27.0961,VALID,184,VALID,7.09844,
2012-07-28, 03:41:04,VALID,999.124,VALID,0,VALID,48.7838,VALID,0,VALID,27.0766,VALID,207,VALID,5.46641,
2012-07-28, 03:42:04,VALID,999.167,VALID,0,VALID,48.6159,VALID,0,VALID,27.1352,VALID,181,VALID,6.14687,
2012-07-28, 03:43:04,VALID,998.951,VALID,0,VALID,48.2726,VALID,0,VALID,27.1136,VALID,197,VALID,6.1543,
2012-07-28, 03:44:04,VALID,999.111,VALID,0,VALID,48.5396,VALID,0,VALID,27.1938,VALID,179,VALID,7.60625,
2012-07-28, 03:45:04,VALID,999.11,VALID,0,VALID,48.4099,VALID,0,VALID,27.1938,VALID,177,VALID,7.47422,